<?xml version='1.0' encoding='UTF-8'?>
<gpx xmlns="http://www.topografix.com/GPX/1/1" creator="www.balnam.be" version="1.1" xmlns:xsi="http://www.w3.org/2001/XMLSchema-instance" xsi:schemaLocation="http://www.topografix.com/GPX/1/1 http://www.topografix.com/GPX/1/1/gpx.xsd">
<trk>
<name>hfefe1</name>
<cmt>r</cmt>
<desc>Fontaine-l'Evêque Chemin n°1 Rue de Roux</desc>
<link href="https://chemins.be/fontaineleveque/chemin/1"/><trkseg>
<trkpt lat="50.418087" lon="4.344469"><time>2026-05-02T17:43:15Z</time></trkpt>
<trkpt lat="50.417472" lon="4.345341"><time>2026-05-02T17:53:15Z</time></trkpt>
<trkpt lat="50.417443" lon="4.345758"><time>2026-05-02T18:03:15Z</time></trkpt>
</trkseg></trk>
<trk>
<name>hfefe1</name>
<cmt>d</cmt>
<desc>Fontaine-l'Evêque Chemin n°1 Rue de Roux</desc>
<link href="https://chemins.be/fontaineleveque/chemin/1"/><trkseg>
<trkpt lat="50.417443" lon="4.345758"><time>2026-05-02T18:03:15Z</time></trkpt>
<trkpt lat="50.417634" lon="4.346352"><time>2026-05-02T18:13:15Z</time></trkpt>
</trkseg></trk>
<trk>
<name>hfefe1</name>
<cmt>s</cmt>
<desc>Fontaine-l'Evêque Chemin n°1 Rue de Roux</desc>
<link href="https://chemins.be/fontaineleveque/chemin/1"/><trkseg>
<trkpt lat="50.417634" lon="4.346352"><time>2026-05-02T18:13:15Z</time></trkpt>
<trkpt lat="50.417992" lon="4.346981"><time>2026-05-02T18:23:15Z</time></trkpt>
</trkseg></trk>
<trk>
<name>hfefe1</name>
<cmt>d</cmt>
<desc>Fontaine-l'Evêque Chemin n°1 Rue de Roux</desc>
<link href="https://chemins.be/fontaineleveque/chemin/1"/><trkseg>
<trkpt lat="50.417992" lon="4.346981"><time>2026-05-02T18:23:15Z</time></trkpt>
<trkpt lat="50.418693" lon="4.348710"><time>2026-05-02T18:33:15Z</time></trkpt>
</trkseg>
</trk>
<trk>
<name>hfefe10</name>
<cmt>s</cmt>
<desc>Fontaine-l'Evêque Chemin n°10 </desc>
<link href="https://chemins.be/fontaineleveque/chemin/10"/><trkseg>
<trkpt lat="50.404688" lon="4.338664"><time>2026-05-02T17:43:15Z</time></trkpt>
<trkpt lat="50.405686" lon="4.340278"><time>2026-05-02T17:53:15Z</time></trkpt>
<trkpt lat="50.405919" lon="4.341088"><time>2026-05-02T18:03:15Z</time></trkpt>
</trkseg>
</trk>
<trk>
<name>hfefe100</name>
<cmt>v</cmt>
<desc>Fontaine-l'Evêque Sentier n°100 </desc>
<link href="https://chemins.be/fontaineleveque/sentier/100"/><trkseg>
<trkpt lat="50.426520" lon="4.344183"><time>2026-05-02T17:43:15Z</time></trkpt>
<trkpt lat="50.426525" lon="4.344690"><time>2026-05-02T17:53:15Z</time></trkpt>
</trkseg></trk>
<trk>
<name>hfefe100</name>
<cmt>d</cmt>
<desc>Fontaine-l'Evêque Sentier n°100 </desc>
<link href="https://chemins.be/fontaineleveque/sentier/100"/><trkseg>
<trkpt lat="50.426525" lon="4.344690"><time>2026-05-02T17:53:15Z</time></trkpt>
<trkpt lat="50.425090" lon="4.345306"><time>2026-05-02T18:03:15Z</time></trkpt>
</trkseg></trk>
<trk>
<name>hfefe100</name>
<cmt>s</cmt>
<desc>Fontaine-l'Evêque Sentier n°100 </desc>
<link href="https://chemins.be/fontaineleveque/sentier/100"/><trkseg>
<trkpt lat="50.425090" lon="4.345306"><time>2026-05-02T18:03:15Z</time></trkpt>
<trkpt lat="50.424764" lon="4.346216"><time>2026-05-02T18:13:15Z</time></trkpt>
</trkseg></trk>
<trk>
<name>hfefe100</name>
<cmt>q</cmt>
<desc>Fontaine-l'Evêque Sentier n°100 </desc>
<link href="https://chemins.be/fontaineleveque/sentier/100"/><trkseg>
<trkpt lat="50.424764" lon="4.346216"><time>2026-05-02T18:13:15Z</time></trkpt>
<trkpt lat="50.424517" lon="4.346876"><time>2026-05-02T18:23:15Z</time></trkpt>
<trkpt lat="50.425387" lon="4.350674"><time>2026-05-02T18:33:15Z</time></trkpt>
</trkseg>
</trk>
<trk>
<name>hfefe102</name>
<cmt>q</cmt>
<desc>Fontaine-l'Evêque Sentier n°102 </desc>
<link href="https://chemins.be/fontaineleveque/sentier/102"/><trkseg>
<trkpt lat="50.415492" lon="4.354137"><time>2026-05-02T17:43:15Z</time></trkpt>
<trkpt lat="50.417926" lon="4.347163"><time>2026-05-02T17:53:15Z</time></trkpt>
</trkseg>
</trk>
<trk>
<name>hfefe103</name>
<cmt>q</cmt>
<desc>Fontaine-l'Evêque Sentier n°103 </desc>
<link href="https://chemins.be/fontaineleveque/sentier/103"/><trkseg>
<trkpt lat="50.416217" lon="4.353665"><time>2026-05-02T17:43:15Z</time></trkpt>
<trkpt lat="50.412621" lon="4.345361"><time>2026-05-02T17:53:15Z</time></trkpt>
</trkseg>
</trk>
<trk>
<name>hfefe105</name>
<cmt>d</cmt>
<desc>Fontaine-l'Evêque Chemin n°105 </desc>
<link href="https://chemins.be/fontaineleveque/chemin/105"/><trkseg>
<trkpt lat="50.402504" lon="4.355982"><time>2026-05-02T17:43:15Z</time></trkpt>
<trkpt lat="50.402290" lon="4.353639"><time>2026-05-02T17:53:15Z</time></trkpt>
<trkpt lat="50.402295" lon="4.353076"><time>2026-05-02T18:03:15Z</time></trkpt>
</trkseg></trk>
<trk>
<name>hfefe105</name>
<cmt>q</cmt>
<desc>Fontaine-l'Evêque Chemin n°105 </desc>
<link href="https://chemins.be/fontaineleveque/chemin/105"/><trkseg>
<trkpt lat="50.402295" lon="4.353076"><time>2026-05-02T18:03:15Z</time></trkpt>
<trkpt lat="50.402591" lon="4.351952"><time>2026-05-02T18:13:15Z</time></trkpt>
<trkpt lat="50.402536" lon="4.351157"><time>2026-05-02T18:23:15Z</time></trkpt>
</trkseg>
</trk>
<trk>
<name>hfefe106</name>
<cmt>q</cmt>
<desc>Fontaine-l'Evêque Sentier n°106 </desc>
<link href="https://chemins.be/fontaineleveque/sentier/106"/><trkseg>
<trkpt lat="50.403601" lon="4.337196"><time>2026-05-02T17:43:15Z</time></trkpt>
<trkpt lat="50.403649" lon="4.336767"><time>2026-05-02T17:53:15Z</time></trkpt>
<trkpt lat="50.403252" lon="4.335893"><time>2026-05-02T18:03:15Z</time></trkpt>
</trkseg>
</trk>
<trk>
<name>hfefe107</name>
<cmt>q</cmt>
<desc>Fontaine-l'Evêque Sentier n°107 </desc>
<link href="https://chemins.be/fontaineleveque/sentier/107"/><trkseg>
<trkpt lat="50.393823" lon="4.300946"><time>2026-05-02T17:43:15Z</time></trkpt>
<trkpt lat="50.394408" lon="4.302036"><time>2026-05-02T17:53:15Z</time></trkpt>
<trkpt lat="50.394321" lon="4.302516"><time>2026-05-02T18:03:15Z</time></trkpt>
</trkseg>
</trk>
<trk>
<name>hfefe108</name>
<cmt>q</cmt>
<desc>Fontaine-l'Evêque Sentier n°108 </desc>
<link href="https://chemins.be/fontaineleveque/sentier/108"/><trkseg>
<trkpt lat="50.421645" lon="4.351570"><time>2026-05-02T17:43:15Z</time></trkpt>
<trkpt lat="50.421464" lon="4.352385"><time>2026-05-02T17:53:15Z</time></trkpt>
</trkseg>
</trk>
<trk>
<name>hfefe13</name>
<cmt>q</cmt>
<desc>Fontaine-l'Evêque Chemin n°13 </desc>
<link href="https://chemins.be/fontaineleveque/chemin/13"/><trkseg>
<trkpt lat="50.404346" lon="4.302134"><time>2026-05-02T17:43:15Z</time></trkpt>
<trkpt lat="50.403949" lon="4.303122"><time>2026-05-02T17:53:15Z</time></trkpt>
<trkpt lat="50.402094" lon="4.304931"><time>2026-05-02T18:03:15Z</time></trkpt>
</trkseg>
</trk>
<trk>
<name>hfefe19</name>
<cmt>s</cmt>
<desc>Fontaine-l'Evêque Chemin n°19 </desc>
<link href="https://chemins.be/fontaineleveque/chemin/19"/><trkseg>
<trkpt lat="50.417306" lon="4.317247"><time>2026-05-02T17:43:15Z</time></trkpt>
<trkpt lat="50.418200" lon="4.316170"><time>2026-05-02T17:53:15Z</time></trkpt>
<trkpt lat="50.418756" lon="4.316850"><time>2026-05-02T18:03:15Z</time></trkpt>
</trkseg>
</trk>
<trk>
<name>hfefe26</name>
<cmt>v</cmt>
<desc>Fontaine-l'Evêque Chemin n°26 Rue de Piéton</desc>
<link href="https://chemins.be/fontaineleveque/chemin/26"/><trkseg>
<trkpt lat="50.419465" lon="4.303776"><time>2026-05-02T17:43:15Z</time></trkpt>
<trkpt lat="50.420412" lon="4.304586"><time>2026-05-02T17:53:15Z</time></trkpt>
<trkpt lat="50.419848" lon="4.306378"><time>2026-05-02T18:03:15Z</time></trkpt>
</trkseg>
</trk>
<trk>
<name>hfefe30</name>
<cmt>r</cmt>
<desc>Fontaine-l'Evêque Sentier n°30 </desc>
<link href="https://chemins.be/fontaineleveque/sentier/30"/><trkseg>
<trkpt lat="50.409532" lon="4.330880"><time>2026-05-02T17:43:15Z</time></trkpt>
<trkpt lat="50.409326" lon="4.330689"><time>2026-05-02T17:53:15Z</time></trkpt>
<trkpt lat="50.409271" lon="4.330239"><time>2026-05-02T18:03:15Z</time></trkpt>
</trkseg></trk>
<trk>
<name>hfefe30</name>
<cmt>s</cmt>
<desc>Fontaine-l'Evêque Sentier n°30 </desc>
<link href="https://chemins.be/fontaineleveque/sentier/30"/><trkseg>
<trkpt lat="50.409271" lon="4.330239"><time>2026-05-02T18:03:15Z</time></trkpt>
<trkpt lat="50.409377" lon="4.329860"><time>2026-05-02T18:13:15Z</time></trkpt>
<trkpt lat="50.409502" lon="4.328455"><time>2026-05-02T18:23:15Z</time></trkpt>
<trkpt lat="50.408395" lon="4.326989"><time>2026-05-02T18:33:15Z</time></trkpt>
</trkseg>
</trk>
<trk>
<name>hfefe31</name>
<cmt>q</cmt>
<desc>Fontaine-l'Evêque Sentier n°31 </desc>
<link href="https://chemins.be/fontaineleveque/sentier/31"/><trkseg>
<trkpt lat="50.410812" lon="4.310067"><time>2026-05-02T17:43:15Z</time></trkpt>
<trkpt lat="50.409837" lon="4.309005"><time>2026-05-02T17:53:15Z</time></trkpt>
<trkpt lat="50.409848" lon="4.307485"><time>2026-05-02T18:03:15Z</time></trkpt>
<trkpt lat="50.409027" lon="4.305468"><time>2026-05-02T18:13:15Z</time></trkpt>
<trkpt lat="50.408672" lon="4.302707"><time>2026-05-02T18:23:15Z</time></trkpt>
<trkpt lat="50.408006" lon="4.300532"><time>2026-05-02T18:33:15Z</time></trkpt>
<trkpt lat="50.406593" lon="4.299788"><time>2026-05-02T18:43:15Z</time></trkpt>
</trkseg>
</trk>
<trk>
<name>hfefe33</name>
<cmt>q</cmt>
<desc>Fontaine-l'Evêque Sentier n°33 </desc>
<link href="https://chemins.be/fontaineleveque/sentier/33"/><trkseg>
<trkpt lat="50.421487" lon="4.300553"><time>2026-05-02T17:43:15Z</time></trkpt>
<trkpt lat="50.421380" lon="4.297741"><time>2026-05-02T17:53:15Z</time></trkpt>
<trkpt lat="50.421628" lon="4.297490"><time>2026-05-02T18:03:15Z</time></trkpt>
<trkpt lat="50.423091" lon="4.296368"><time>2026-05-02T18:13:15Z</time></trkpt>
<trkpt lat="50.424388" lon="4.294308"><time>2026-05-02T18:23:15Z</time></trkpt>
</trkseg>
</trk>
<trk>
<name>hfefe34</name>
<cmt>v</cmt>
<desc>Fontaine-l'Evêque Sentier n°34 Rue Célestin Hecq</desc>
<link href="https://chemins.be/fontaineleveque/sentier/34"/><trkseg>
<trkpt lat="50.413567" lon="4.354507"><time>2026-05-02T17:43:15Z</time></trkpt>
<trkpt lat="50.412955" lon="4.353382"><time>2026-05-02T17:53:15Z</time></trkpt>
<trkpt lat="50.412749" lon="4.352960"><time>2026-05-02T18:03:15Z</time></trkpt>
<trkpt lat="50.412632" lon="4.352564"><time>2026-05-02T18:13:15Z</time></trkpt>
<trkpt lat="50.412524" lon="4.352524"><time>2026-05-02T18:23:15Z</time></trkpt>
</trkseg></trk>
<trk>
<name>hfefe34</name>
<cmt>q</cmt>
<desc>Fontaine-l'Evêque Sentier n°34 Rue Célestin Hecq</desc>
<link href="https://chemins.be/fontaineleveque/sentier/34"/><trkseg>
<trkpt lat="50.412524" lon="4.352524"><time>2026-05-02T18:23:15Z</time></trkpt>
<trkpt lat="50.412263" lon="4.351653"><time>2026-05-02T18:33:15Z</time></trkpt>
<trkpt lat="50.411878" lon="4.350258"><time>2026-05-02T18:43:15Z</time></trkpt>
<trkpt lat="50.411905" lon="4.349485"><time>2026-05-02T18:53:15Z</time></trkpt>
<trkpt lat="50.412240" lon="4.347557"><time>2026-05-02T19:03:15Z</time></trkpt>
<trkpt lat="50.412200" lon="4.347263"><time>2026-05-02T19:13:15Z</time></trkpt>
<trkpt lat="50.411894" lon="4.346868"><time>2026-05-02T19:23:15Z</time></trkpt>
</trkseg></trk>
<trk>
<name>hfefe34</name>
<cmt>v</cmt>
<desc>Fontaine-l'Evêque Sentier n°34 Rue Célestin Hecq</desc>
<link href="https://chemins.be/fontaineleveque/sentier/34"/><trkseg>
<trkpt lat="50.411894" lon="4.346868"><time>2026-05-02T19:23:15Z</time></trkpt>
<trkpt lat="50.410510" lon="4.346443"><time>2026-05-02T19:33:15Z</time></trkpt>
</trkseg>
</trk>
<trk>
<name>hfefe36</name>
<cmt>v</cmt>
<desc>Fontaine-l'Evêque Chemin n°36 </desc>
<link href="https://chemins.be/fontaineleveque/chemin/36"/><trkseg>
<trkpt lat="50.400745" lon="4.298838"><time>2026-05-02T17:43:15Z</time></trkpt>
<trkpt lat="50.399242" lon="4.297208"><time>2026-05-02T17:53:15Z</time></trkpt>
<trkpt lat="50.397300" lon="4.295763"><time>2026-05-02T18:03:15Z</time></trkpt>
</trkseg></trk>
<trk>
<name>hfefe36</name>
<cmt>s</cmt>
<desc>Fontaine-l'Evêque Chemin n°36 </desc>
<link href="https://chemins.be/fontaineleveque/chemin/36"/><trkseg>
<trkpt lat="50.397300" lon="4.295763"><time>2026-05-02T18:03:15Z</time></trkpt>
<trkpt lat="50.396751" lon="4.295088"><time>2026-05-02T18:13:15Z</time></trkpt>
</trkseg></trk>
<trk>
<name>hfefe36</name>
<cmt>v</cmt>
<desc>Fontaine-l'Evêque Chemin n°36 </desc>
<link href="https://chemins.be/fontaineleveque/chemin/36"/><trkseg>
<trkpt lat="50.396751" lon="4.295088"><time>2026-05-02T18:13:15Z</time></trkpt>
<trkpt lat="50.396229" lon="4.294541"><time>2026-05-02T18:23:15Z</time></trkpt>
<trkpt lat="50.393387" lon="4.293181"><time>2026-05-02T18:33:15Z</time></trkpt>
<trkpt lat="50.392983" lon="4.293013"><time>2026-05-02T18:43:15Z</time></trkpt>
<trkpt lat="50.391355" lon="4.293226"><time>2026-05-02T18:53:15Z</time></trkpt>
</trkseg>
</trk>
<trk>
<name>hfefe39</name>
<cmt>q</cmt>
<desc>Fontaine-l'Evêque Sentier n°39 </desc>
<link href="https://chemins.be/fontaineleveque/sentier/39"/><trkseg>
<trkpt lat="50.418575" lon="4.305278"><time>2026-05-02T17:43:15Z</time></trkpt>
<trkpt lat="50.419174" lon="4.305308"><time>2026-05-02T17:53:15Z</time></trkpt>
<trkpt lat="50.419888" lon="4.306360"><time>2026-05-02T18:03:15Z</time></trkpt>
<trkpt lat="50.419978" lon="4.306741"><time>2026-05-02T18:13:15Z</time></trkpt>
</trkseg>
</trk>
<trk>
<name>hfefe4</name>
<cmt>s</cmt>
<desc>Fontaine-l'Evêque Chemin n°4 </desc>
<link href="https://chemins.be/fontaineleveque/chemin/4"/><trkseg>
<trkpt lat="50.414505" lon="4.324488"><time>2026-05-02T17:43:15Z</time></trkpt>
<trkpt lat="50.415302" lon="4.326205"><time>2026-05-02T17:53:15Z</time></trkpt>
<trkpt lat="50.416018" lon="4.326720"><time>2026-05-02T18:03:15Z</time></trkpt>
</trkseg>
</trk>
<trk>
<name>hfefe40</name>
<cmt>q</cmt>
<desc>Fontaine-l'Evêque Sentier n°40 </desc>
<link href="https://chemins.be/fontaineleveque/sentier/40"/><trkseg>
<trkpt lat="50.418230" lon="4.316157"><time>2026-05-02T17:43:15Z</time></trkpt>
<trkpt lat="50.421482" lon="4.313663"><time>2026-05-02T17:53:15Z</time></trkpt>
<trkpt lat="50.422954" lon="4.312876"><time>2026-05-02T18:03:15Z</time></trkpt>
</trkseg>
</trk>
<trk>
<name>hfefe41</name>
<cmt>q</cmt>
<desc>Fontaine-l'Evêque Sentier n°41 </desc>
<link href="https://chemins.be/fontaineleveque/sentier/41"/><trkseg>
<trkpt lat="50.420678" lon="4.317876"><time>2026-05-02T17:43:15Z</time></trkpt>
<trkpt lat="50.422220" lon="4.319095"><time>2026-05-02T17:53:15Z</time></trkpt>
<trkpt lat="50.425491" lon="4.320418"><time>2026-05-02T18:03:15Z</time></trkpt>
<trkpt lat="50.426365" lon="4.320365"><time>2026-05-02T18:13:15Z</time></trkpt>
</trkseg>
</trk>
<trk>
<name>hfefe42</name>
<cmt>v</cmt>
<desc>Fontaine-l'Evêque Sentier n°42 </desc>
<link href="https://chemins.be/fontaineleveque/sentier/42"/><trkseg>
<trkpt lat="50.417432" lon="4.318105"><time>2026-05-02T17:43:15Z</time></trkpt>
<trkpt lat="50.418988" lon="4.319299"><time>2026-05-02T17:53:15Z</time></trkpt>
</trkseg>
</trk>
<trk>
<name>hfefe43</name>
<cmt>q</cmt>
<desc>Fontaine-l'Evêque Sentier n°43 </desc>
<link href="https://chemins.be/fontaineleveque/sentier/43"/><trkseg>
<trkpt lat="50.418634" lon="4.322131"><time>2026-05-02T17:43:15Z</time></trkpt>
<trkpt lat="50.420174" lon="4.323304"><time>2026-05-02T17:53:15Z</time></trkpt>
<trkpt lat="50.422521" lon="4.322997"><time>2026-05-02T18:03:15Z</time></trkpt>
</trkseg>
</trk>
<trk>
<name>hfefe44</name>
<cmt>r</cmt>
<desc>Fontaine-l'Evêque Sentier n°44 </desc>
<link href="https://chemins.be/fontaineleveque/sentier/44"/><trkseg>
<trkpt lat="50.418556" lon="4.322121"><time>2026-05-02T17:43:15Z</time></trkpt>
<trkpt lat="50.417608" lon="4.323694"><time>2026-05-02T17:53:15Z</time></trkpt>
<trkpt lat="50.417116" lon="4.324173"><time>2026-05-02T18:03:15Z</time></trkpt>
<trkpt lat="50.416136" lon="4.324846"><time>2026-05-02T18:13:15Z</time></trkpt>
</trkseg></trk>
<trk>
<name>hfefe44</name>
<cmt>s</cmt>
<desc>Fontaine-l'Evêque Sentier n°44 </desc>
<link href="https://chemins.be/fontaineleveque/sentier/44"/><trkseg>
<trkpt lat="50.416136" lon="4.324846"><time>2026-05-02T18:13:15Z</time></trkpt>
<trkpt lat="50.415020" lon="4.324803"><time>2026-05-02T18:23:15Z</time></trkpt>
</trkseg>
</trk>
<trk>
<name>hfefe45</name>
<cmt>v</cmt>
<desc>Fontaine-l'Evêque Sentier n°45 </desc>
<link href="https://chemins.be/fontaineleveque/sentier/45"/><trkseg>
<trkpt lat="50.420637" lon="4.325117"><time>2026-05-02T17:43:15Z</time></trkpt>
<trkpt lat="50.422693" lon="4.322821"><time>2026-05-02T17:53:15Z</time></trkpt>
</trkseg></trk>
<trk>
<name>hfefe45</name>
<cmt>d</cmt>
<desc>Fontaine-l'Evêque Sentier n°45 </desc>
<link href="https://chemins.be/fontaineleveque/sentier/45"/><trkseg>
<trkpt lat="50.422693" lon="4.322821"><time>2026-05-02T17:53:15Z</time></trkpt>
<trkpt lat="50.426362" lon="4.320962"><time>2026-05-02T18:03:15Z</time></trkpt>
</trkseg>
</trk>
<trk>
<name>hfefe46</name>
<cmt>q</cmt>
<desc>Fontaine-l'Evêque Sentier n°46 </desc>
<link href="https://chemins.be/fontaineleveque/sentier/46"/><trkseg>
<trkpt lat="50.415834" lon="4.327202"><time>2026-05-02T17:43:15Z</time></trkpt>
<trkpt lat="50.416659" lon="4.328206"><time>2026-05-02T17:53:15Z</time></trkpt>
<trkpt lat="50.417105" lon="4.328747"><time>2026-05-02T18:03:15Z</time></trkpt>
<trkpt lat="50.417139" lon="4.329370"><time>2026-05-02T18:13:15Z</time></trkpt>
<trkpt lat="50.417796" lon="4.330357"><time>2026-05-02T18:23:15Z</time></trkpt>
</trkseg>
</trk>
<trk>
<name>hfefe47</name>
<cmt>q</cmt>
<desc>Fontaine-l'Evêque Sentier n°47 </desc>
<link href="https://chemins.be/fontaineleveque/sentier/47"/><trkseg>
<trkpt lat="50.416421" lon="4.330110"><time>2026-05-02T17:43:15Z</time></trkpt>
<trkpt lat="50.417755" lon="4.330346"><time>2026-05-02T17:53:15Z</time></trkpt>
</trkseg>
</trk>
<trk>
<name>hfefe48</name>
<cmt>s</cmt>
<desc>Fontaine-l'Evêque Sentier n°48 </desc>
<link href="https://chemins.be/fontaineleveque/sentier/48"/><trkseg>
<trkpt lat="50.421518" lon="4.330057"><time>2026-05-02T17:43:15Z</time></trkpt>
<trkpt lat="50.422083" lon="4.329886"><time>2026-05-02T17:53:15Z</time></trkpt>
</trkseg>
</trk>
<trk>
<name>hfefe49</name>
<cmt>q</cmt>
<desc>Fontaine-l'Evêque Sentier n°49 </desc>
<link href="https://chemins.be/fontaineleveque/sentier/49"/><trkseg>
<trkpt lat="50.418582" lon="4.330662"><time>2026-05-02T17:43:15Z</time></trkpt>
<trkpt lat="50.419785" lon="4.333624"><time>2026-05-02T17:53:15Z</time></trkpt>
<trkpt lat="50.420227" lon="4.334340"><time>2026-05-02T18:03:15Z</time></trkpt>
<trkpt lat="50.420633" lon="4.334997"><time>2026-05-02T18:13:15Z</time></trkpt>
<trkpt lat="50.420906" lon="4.336456"><time>2026-05-02T18:23:15Z</time></trkpt>
<trkpt lat="50.420729" lon="4.336585"><time>2026-05-02T18:33:15Z</time></trkpt>
<trkpt lat="50.421289" lon="4.338387"><time>2026-05-02T18:43:15Z</time></trkpt>
<trkpt lat="50.421768" lon="4.338559"><time>2026-05-02T18:53:15Z</time></trkpt>
<trkpt lat="50.422287" lon="4.340383"><time>2026-05-02T19:03:15Z</time></trkpt>
<trkpt lat="50.425028" lon="4.345122"><time>2026-05-02T19:13:15Z</time></trkpt>
</trkseg></trk>
<trk>
<name>hfefe49</name>
<cmt>s</cmt>
<desc>Fontaine-l'Evêque Sentier n°49 </desc>
<link href="https://chemins.be/fontaineleveque/sentier/49"/><trkseg>
<trkpt lat="50.425028" lon="4.345122"><time>2026-05-02T19:13:15Z</time></trkpt>
<trkpt lat="50.425650" lon="4.346198"><time>2026-05-02T19:23:15Z</time></trkpt>
</trkseg></trk>
<trk>
<name>hfefe49</name>
<cmt>q</cmt>
<desc>Fontaine-l'Evêque Sentier n°49 </desc>
<link href="https://chemins.be/fontaineleveque/sentier/49"/><trkseg>
<trkpt lat="50.425650" lon="4.346198"><time>2026-05-02T19:23:15Z</time></trkpt>
<trkpt lat="50.426731" lon="4.348459"><time>2026-05-02T19:33:15Z</time></trkpt>
<trkpt lat="50.427288" lon="4.349369"><time>2026-05-02T19:43:15Z</time></trkpt>
</trkseg>
</trk>
<trk>
<name>hfefe51</name>
<cmt>r</cmt>
<desc>Fontaine-l'Evêque Sentier n°51 </desc>
<link href="https://chemins.be/fontaineleveque/sentier/51"/><trkseg>
<trkpt lat="50.419278" lon="4.335103"><time>2026-05-02T17:43:15Z</time></trkpt>
<trkpt lat="50.419652" lon="4.335861"><time>2026-05-02T17:53:15Z</time></trkpt>
</trkseg></trk>
<trk>
<name>hfefe51</name>
<cmt>q</cmt>
<desc>Fontaine-l'Evêque Sentier n°51 </desc>
<link href="https://chemins.be/fontaineleveque/sentier/51"/><trkseg>
<trkpt lat="50.419652" lon="4.335861"><time>2026-05-02T17:53:15Z</time></trkpt>
<trkpt lat="50.420701" lon="4.336542"><time>2026-05-02T18:03:15Z</time></trkpt>
<trkpt lat="50.420871" lon="4.336445"><time>2026-05-02T18:13:15Z</time></trkpt>
<trkpt lat="50.420795" lon="4.335796"><time>2026-05-02T18:23:15Z</time></trkpt>
<trkpt lat="50.421917" lon="4.335287"><time>2026-05-02T18:33:15Z</time></trkpt>
<trkpt lat="50.423770" lon="4.333892"><time>2026-05-02T18:43:15Z</time></trkpt>
</trkseg>
</trk>
<trk>
<name>hfefe52</name>
<cmt>q</cmt>
<desc>Fontaine-l'Evêque Sentier n°52 </desc>
<link href="https://chemins.be/fontaineleveque/sentier/52"/><trkseg>
<trkpt lat="50.417488" lon="4.339970"><time>2026-05-02T17:43:15Z</time></trkpt>
<trkpt lat="50.419388" lon="4.337738"><time>2026-05-02T17:53:15Z</time></trkpt>
<trkpt lat="50.419792" lon="4.336129"><time>2026-05-02T18:03:15Z</time></trkpt>
</trkseg>
</trk>
<trk>
<name>hfefe53</name>
<cmt>r</cmt>
<desc>Fontaine-l'Evêque Sentier n°53 </desc>
<link href="https://chemins.be/fontaineleveque/sentier/53"/><trkseg>
<trkpt lat="50.410346" lon="4.341364"><time>2026-05-02T17:43:15Z</time></trkpt>
<trkpt lat="50.411896" lon="4.342280"><time>2026-05-02T17:53:15Z</time></trkpt>
</trkseg></trk>
<trk>
<name>hfefe53</name>
<cmt>v</cmt>
<desc>Fontaine-l'Evêque Sentier n°53 </desc>
<link href="https://chemins.be/fontaineleveque/sentier/53"/><trkseg>
<trkpt lat="50.411896" lon="4.342280"><time>2026-05-02T17:53:15Z</time></trkpt>
<trkpt lat="50.414035" lon="4.341118"><time>2026-05-02T18:03:15Z</time></trkpt>
</trkseg></trk>
<trk>
<name>hfefe53</name>
<cmt>q</cmt>
<desc>Fontaine-l'Evêque Sentier n°53 </desc>
<link href="https://chemins.be/fontaineleveque/sentier/53"/><trkseg>
<trkpt lat="50.414035" lon="4.341118"><time>2026-05-02T18:03:15Z</time></trkpt>
<trkpt lat="50.415095" lon="4.340903"><time>2026-05-02T18:13:15Z</time></trkpt>
<trkpt lat="50.416784" lon="4.339648"><time>2026-05-02T18:23:15Z</time></trkpt>
</trkseg>
</trk>
<trk>
<name>hfefe54</name>
<cmt>v</cmt>
<desc>Fontaine-l'Evêque Sentier n°54 </desc>
<link href="https://chemins.be/fontaineleveque/sentier/54"/><trkseg>
<trkpt lat="50.416811" lon="4.339669"><time>2026-05-02T17:43:15Z</time></trkpt>
<trkpt lat="50.416750" lon="4.341182"><time>2026-05-02T17:53:15Z</time></trkpt>
</trkseg></trk>
<trk>
<name>hfefe54</name>
<cmt>q</cmt>
<desc>Fontaine-l'Evêque Sentier n°54 </desc>
<link href="https://chemins.be/fontaineleveque/sentier/54"/><trkseg>
<trkpt lat="50.416750" lon="4.341182"><time>2026-05-02T17:53:15Z</time></trkpt>
<trkpt lat="50.417242" lon="4.342867"><time>2026-05-02T18:03:15Z</time></trkpt>
<trkpt lat="50.417392" lon="4.345409"><time>2026-05-02T18:13:15Z</time></trkpt>
</trkseg>
</trk>
<trk>
<name>hfefe55</name>
<cmt>v</cmt>
<desc>Fontaine-l'Evêque Sentier n°55 Sentier n°55</desc>
<link href="https://chemins.be/fontaineleveque/sentier/55"/><trkseg>
<trkpt lat="50.414146" lon="4.333431"><time>2026-05-02T17:43:15Z</time></trkpt>
<trkpt lat="50.414279" lon="4.333658"><time>2026-05-02T17:53:15Z</time></trkpt>
<trkpt lat="50.414865" lon="4.334648"><time>2026-05-02T18:03:15Z</time></trkpt>
<trkpt lat="50.414954" lon="4.335303"><time>2026-05-02T18:13:15Z</time></trkpt>
<trkpt lat="50.416627" lon="4.339151"><time>2026-05-02T18:23:15Z</time></trkpt>
<trkpt lat="50.416611" lon="4.339210"><time>2026-05-02T18:33:15Z</time></trkpt>
</trkseg>
</trk>
<trk>
<name>hfefe56</name>
<cmt>q</cmt>
<desc>Fontaine-l'Evêque Sentier n°56 </desc>
<link href="https://chemins.be/fontaineleveque/sentier/56"/><trkseg>
<trkpt lat="50.414521" lon="4.330421"><time>2026-05-02T17:43:15Z</time></trkpt>
<trkpt lat="50.415225" lon="4.331945"><time>2026-05-02T17:53:15Z</time></trkpt>
<trkpt lat="50.414295" lon="4.333650"><time>2026-05-02T18:03:15Z</time></trkpt>
</trkseg>
</trk>
<trk>
<name>hfefe57</name>
<cmt>q</cmt>
<desc>Fontaine-l'Evêque Sentier n°57 </desc>
<link href="https://chemins.be/fontaineleveque/sentier/57"/><trkseg>
<trkpt lat="50.410319" lon="4.337001"><time>2026-05-02T17:43:15Z</time></trkpt>
<trkpt lat="50.410498" lon="4.337049"><time>2026-05-02T17:53:15Z</time></trkpt>
<trkpt lat="50.410734" lon="4.337381"><time>2026-05-02T18:03:15Z</time></trkpt>
<trkpt lat="50.410966" lon="4.338315"><time>2026-05-02T18:13:15Z</time></trkpt>
</trkseg>
</trk>
<trk>
<name>hfefe58</name>
<cmt>v</cmt>
<desc>Fontaine-l'Evêque Sentier n°58 Rue de la Casse</desc>
<link href="https://chemins.be/fontaineleveque/sentier/58"/><trkseg>
<trkpt lat="50.410856" lon="4.332152"><time>2026-05-02T17:43:15Z</time></trkpt>
<trkpt lat="50.411531" lon="4.334079"><time>2026-05-02T17:53:15Z</time></trkpt>
<trkpt lat="50.411244" lon="4.335191"><time>2026-05-02T18:03:15Z</time></trkpt>
</trkseg></trk>
<trk>
<name>hfefe58</name>
<cmt>r</cmt>
<desc>Fontaine-l'Evêque Sentier n°58 Rue de la Casse</desc>
<link href="https://chemins.be/fontaineleveque/sentier/58"/><trkseg>
<trkpt lat="50.411244" lon="4.335191"><time>2026-05-02T18:03:15Z</time></trkpt>
<trkpt lat="50.411495" lon="4.335486"><time>2026-05-02T18:13:15Z</time></trkpt>
<trkpt lat="50.411101" lon="4.338540"><time>2026-05-02T18:23:15Z</time></trkpt>
<trkpt lat="50.411712" lon="4.339524"><time>2026-05-02T18:33:15Z</time></trkpt>
</trkseg></trk>
<trk>
<name>hfefe58</name>
<cmt>q</cmt>
<desc>Fontaine-l'Evêque Sentier n°58 Rue de la Casse</desc>
<link href="https://chemins.be/fontaineleveque/sentier/58"/><trkseg>
<trkpt lat="50.411712" lon="4.339524"><time>2026-05-02T18:33:15Z</time></trkpt>
<trkpt lat="50.411892" lon="4.340115"><time>2026-05-02T18:43:15Z</time></trkpt>
<trkpt lat="50.412135" lon="4.340466"><time>2026-05-02T18:53:15Z</time></trkpt>
<trkpt lat="50.411839" lon="4.342394"><time>2026-05-02T19:03:15Z</time></trkpt>
<trkpt lat="50.412066" lon="4.342841"><time>2026-05-02T19:13:15Z</time></trkpt>
<trkpt lat="50.412115" lon="4.344210"><time>2026-05-02T19:23:15Z</time></trkpt>
<trkpt lat="50.412655" lon="4.344614"><time>2026-05-02T19:33:15Z</time></trkpt>
<trkpt lat="50.412646" lon="4.345301"><time>2026-05-02T19:43:15Z</time></trkpt>
<trkpt lat="50.412545" lon="4.345745"><time>2026-05-02T19:53:15Z</time></trkpt>
</trkseg></trk>
<trk>
<name>hfefe58</name>
<cmt>s</cmt>
<desc>Fontaine-l'Evêque Sentier n°58 Rue de la Casse</desc>
<link href="https://chemins.be/fontaineleveque/sentier/58"/><trkseg>
<trkpt lat="50.412545" lon="4.345745"><time>2026-05-02T19:53:15Z</time></trkpt>
<trkpt lat="50.412363" lon="4.346524"><time>2026-05-02T20:03:15Z</time></trkpt>
</trkseg></trk>
<trk>
<name>hfefe58</name>
<cmt>q</cmt>
<desc>Fontaine-l'Evêque Sentier n°58 Rue de la Casse</desc>
<link href="https://chemins.be/fontaineleveque/sentier/58"/><trkseg>
<trkpt lat="50.412363" lon="4.346524"><time>2026-05-02T20:03:15Z</time></trkpt>
<trkpt lat="50.412221" lon="4.347305"><time>2026-05-02T20:13:15Z</time></trkpt>
</trkseg>
</trk>
<trk>
<name>hfefe59</name>
<cmt>s</cmt>
<desc>Fontaine-l'Evêque Sentier n°59 Avenue des Déportés</desc>
<link href="https://chemins.be/fontaineleveque/sentier/59"/><trkseg>
<trkpt lat="50.410289" lon="4.328544"><time>2026-05-02T17:43:15Z</time></trkpt>
<trkpt lat="50.410049" lon="4.329177"><time>2026-05-02T17:53:15Z</time></trkpt>
<trkpt lat="50.409398" lon="4.330780"><time>2026-05-02T18:03:15Z</time></trkpt>
<trkpt lat="50.409115" lon="4.331602"><time>2026-05-02T18:13:15Z</time></trkpt>
<trkpt lat="50.406787" lon="4.335591"><time>2026-05-02T18:23:15Z</time></trkpt>
<trkpt lat="50.406258" lon="4.335877"><time>2026-05-02T18:33:15Z</time></trkpt>
</trkseg>
</trk>
<trk>
<name>hfefe60</name>
<cmt>r</cmt>
<desc>Fontaine-l'Evêque Sentier n°60 Rue des Carières</desc>
<link href="https://chemins.be/fontaineleveque/sentier/60"/><trkseg>
<trkpt lat="50.407640" lon="4.342157"><time>2026-05-02T17:43:15Z</time></trkpt>
<trkpt lat="50.408170" lon="4.341411"><time>2026-05-02T17:53:15Z</time></trkpt>
<trkpt lat="50.408170" lon="4.340666"><time>2026-05-02T18:03:15Z</time></trkpt>
</trkseg></trk>
<trk>
<name>hfefe60</name>
<cmt>v</cmt>
<desc>Fontaine-l'Evêque Sentier n°60 Rue des Carières</desc>
<link href="https://chemins.be/fontaineleveque/sentier/60"/><trkseg>
<trkpt lat="50.408170" lon="4.340666"><time>2026-05-02T18:03:15Z</time></trkpt>
<trkpt lat="50.408359" lon="4.340525"><time>2026-05-02T18:13:15Z</time></trkpt>
<trkpt lat="50.408548" lon="4.339160"><time>2026-05-02T18:23:15Z</time></trkpt>
<trkpt lat="50.408934" lon="4.337500"><time>2026-05-02T18:33:15Z</time></trkpt>
</trkseg></trk>
<trk>
<name>hfefe60</name>
<cmt>r</cmt>
<desc>Fontaine-l'Evêque Sentier n°60 Rue des Carières</desc>
<link href="https://chemins.be/fontaineleveque/sentier/60"/><trkseg>
<trkpt lat="50.408934" lon="4.337500"><time>2026-05-02T18:33:15Z</time></trkpt>
<trkpt lat="50.409239" lon="4.336515"><time>2026-05-02T18:43:15Z</time></trkpt>
<trkpt lat="50.409212" lon="4.335614"><time>2026-05-02T18:53:15Z</time></trkpt>
</trkseg>
</trk>
<trk>
<name>hfefe61</name>
<cmt>d</cmt>
<desc>Fontaine-l'Evêque Sentier n°61 </desc>
<link href="https://chemins.be/fontaineleveque/sentier/61"/><trkseg>
<trkpt lat="50.413455" lon="4.354523"><time>2026-05-02T17:43:15Z</time></trkpt>
<trkpt lat="50.411910" lon="4.354570"><time>2026-05-02T17:53:15Z</time></trkpt>
<trkpt lat="50.411308" lon="4.354588"><time>2026-05-02T18:03:15Z</time></trkpt>
<trkpt lat="50.410335" lon="4.352667"><time>2026-05-02T18:13:15Z</time></trkpt>
</trkseg></trk>
<trk>
<name>hfefe61</name>
<cmt>v</cmt>
<desc>Fontaine-l'Evêque Sentier n°61 </desc>
<link href="https://chemins.be/fontaineleveque/sentier/61"/><trkseg>
<trkpt lat="50.410335" lon="4.352667"><time>2026-05-02T18:13:15Z</time></trkpt>
<trkpt lat="50.409296" lon="4.351644"><time>2026-05-02T18:23:15Z</time></trkpt>
<trkpt lat="50.409044" lon="4.351407"><time>2026-05-02T18:33:15Z</time></trkpt>
<trkpt lat="50.407328" lon="4.349567"><time>2026-05-02T18:43:15Z</time></trkpt>
</trkseg></trk>
<trk>
<name>hfefe61</name>
<cmt>s</cmt>
<desc>Fontaine-l'Evêque Sentier n°61 </desc>
<link href="https://chemins.be/fontaineleveque/sentier/61"/><trkseg>
<trkpt lat="50.407328" lon="4.349567"><time>2026-05-02T18:43:15Z</time></trkpt>
<trkpt lat="50.407082" lon="4.344331"><time>2026-05-02T18:53:15Z</time></trkpt>
<trkpt lat="50.406877" lon="4.342271"><time>2026-05-02T19:03:15Z</time></trkpt>
</trkseg>
</trk>
<trk>
<name>hfefe62</name>
<cmt>v</cmt>
<desc>Fontaine-l'Evêque Sentier n°62 </desc>
<link href="https://chemins.be/fontaineleveque/sentier/62"/><trkseg>
<trkpt lat="50.410507" lon="4.346443"><time>2026-05-02T17:43:15Z</time></trkpt>
<trkpt lat="50.410338" lon="4.346433"><time>2026-05-02T17:53:15Z</time></trkpt>
<trkpt lat="50.410194" lon="4.346601"><time>2026-05-02T18:03:15Z</time></trkpt>
<trkpt lat="50.410060" lon="4.347108"><time>2026-05-02T18:13:15Z</time></trkpt>
<trkpt lat="50.410006" lon="4.347502"><time>2026-05-02T18:23:15Z</time></trkpt>
<trkpt lat="50.409871" lon="4.347769"><time>2026-05-02T18:33:15Z</time></trkpt>
<trkpt lat="50.409682" lon="4.348248"><time>2026-05-02T18:43:15Z</time></trkpt>
<trkpt lat="50.409583" lon="4.348740"><time>2026-05-02T18:53:15Z</time></trkpt>
<trkpt lat="50.409566" lon="4.349148"><time>2026-05-02T19:03:15Z</time></trkpt>
<trkpt lat="50.409611" lon="4.349570"><time>2026-05-02T19:13:15Z</time></trkpt>
<trkpt lat="50.409629" lon="4.349809"><time>2026-05-02T19:23:15Z</time></trkpt>
<trkpt lat="50.409368" lon="4.350485"><time>2026-05-02T19:33:15Z</time></trkpt>
<trkpt lat="50.409251" lon="4.350766"><time>2026-05-02T19:43:15Z</time></trkpt>
<trkpt lat="50.409098" lon="4.351174"><time>2026-05-02T19:53:15Z</time></trkpt>
<trkpt lat="50.409035" lon="4.351399"><time>2026-05-02T20:03:15Z</time></trkpt>
</trkseg></trk>
<trk>
<name>hfefe62</name>
<cmt>d</cmt>
<desc>Fontaine-l'Evêque Sentier n°62 </desc>
<link href="https://chemins.be/fontaineleveque/sentier/62"/><trkseg>
<trkpt lat="50.409035" lon="4.351399"><time>2026-05-02T20:03:15Z</time></trkpt>
<trkpt lat="50.407795" lon="4.354593"><time>2026-05-02T20:13:15Z</time></trkpt>
<trkpt lat="50.407586" lon="4.356153"><time>2026-05-02T20:23:15Z</time></trkpt>
</trkseg>
</trk>
<trk>
<name>hfefe63</name>
<cmt>r</cmt>
<desc>Fontaine-l'Evêque Sentier n°63 Calvaire Mascaux / Rue de l'Ermitage</desc>
<link href="https://chemins.be/fontaineleveque/sentier/63"/><trkseg>
<trkpt lat="50.406838" lon="4.332775"><time>2026-05-02T17:43:15Z</time></trkpt>
<trkpt lat="50.407545" lon="4.333283"><time>2026-05-02T17:53:15Z</time></trkpt>
</trkseg></trk>
<trk>
<name>hfefe63</name>
<cmt>q</cmt>
<desc>Fontaine-l'Evêque Sentier n°63 Calvaire Mascaux / Rue de l'Ermitage</desc>
<link href="https://chemins.be/fontaineleveque/sentier/63"/><trkseg>
<trkpt lat="50.407545" lon="4.333283"><time>2026-05-02T17:53:15Z</time></trkpt>
<trkpt lat="50.407514" lon="4.333417"><time>2026-05-02T18:03:15Z</time></trkpt>
</trkseg></trk>
<trk>
<name>hfefe63</name>
<cmt>d</cmt>
<desc>Fontaine-l'Evêque Sentier n°63 Calvaire Mascaux / Rue de l'Ermitage</desc>
<link href="https://chemins.be/fontaineleveque/sentier/63"/><trkseg>
<trkpt lat="50.407514" lon="4.333417"><time>2026-05-02T18:03:15Z</time></trkpt>
<trkpt lat="50.407485" lon="4.333515"><time>2026-05-02T18:13:15Z</time></trkpt>
<trkpt lat="50.408016" lon="4.333973"><time>2026-05-02T18:23:15Z</time></trkpt>
</trkseg></trk>
<trk>
<name>hfefe63</name>
<cmt>r</cmt>
<desc>Fontaine-l'Evêque Sentier n°63 Calvaire Mascaux / Rue de l'Ermitage</desc>
<link href="https://chemins.be/fontaineleveque/sentier/63"/><trkseg>
<trkpt lat="50.408016" lon="4.333973"><time>2026-05-02T18:23:15Z</time></trkpt>
<trkpt lat="50.407973" lon="4.334088"><time>2026-05-02T18:33:15Z</time></trkpt>
<trkpt lat="50.408210" lon="4.334302"><time>2026-05-02T18:43:15Z</time></trkpt>
<trkpt lat="50.408978" lon="4.334950"><time>2026-05-02T18:53:15Z</time></trkpt>
<trkpt lat="50.409122" lon="4.335418"><time>2026-05-02T19:03:15Z</time></trkpt>
<trkpt lat="50.409220" lon="4.335532"><time>2026-05-02T19:13:15Z</time></trkpt>
</trkseg>
</trk>
<trk>
<name>hfefe64</name>
<cmt>s</cmt>
<desc>Fontaine-l'Evêque Sentier n°64 </desc>
<link href="https://chemins.be/fontaineleveque/sentier/64"/><trkseg>
<trkpt lat="50.406051" lon="4.341687"><time>2026-05-02T17:43:15Z</time></trkpt>
<trkpt lat="50.405396" lon="4.341895"><time>2026-05-02T17:53:15Z</time></trkpt>
</trkseg>
</trk>
<trk>
<name>hfefe65</name>
<cmt>r</cmt>
<desc>Fontaine-l'Evêque Sentier n°65 </desc>
<link href="https://chemins.be/fontaineleveque/sentier/65"/><trkseg>
<trkpt lat="50.408206" lon="4.327122"><time>2026-05-02T17:43:15Z</time></trkpt>
<trkpt lat="50.408049" lon="4.327549"><time>2026-05-02T17:53:15Z</time></trkpt>
</trkseg></trk>
<trk>
<name>hfefe65</name>
<cmt>q</cmt>
<desc>Fontaine-l'Evêque Sentier n°65 </desc>
<link href="https://chemins.be/fontaineleveque/sentier/65"/><trkseg>
<trkpt lat="50.408049" lon="4.327549"><time>2026-05-02T17:53:15Z</time></trkpt>
<trkpt lat="50.407716" lon="4.328902"><time>2026-05-02T18:03:15Z</time></trkpt>
<trkpt lat="50.407695" lon="4.329342"><time>2026-05-02T18:13:15Z</time></trkpt>
</trkseg>
</trk>
<trk>
<name>hfefe66</name>
<cmt>q</cmt>
<desc>Fontaine-l'Evêque Sentier n°66 </desc>
<link href="https://chemins.be/fontaineleveque/sentier/66"/><trkseg>
<trkpt lat="50.408108" lon="4.327497"><time>2026-05-02T17:43:15Z</time></trkpt>
<trkpt lat="50.407007" lon="4.328549"><time>2026-05-02T17:53:15Z</time></trkpt>
<trkpt lat="50.405708" lon="4.331306"><time>2026-05-02T18:03:15Z</time></trkpt>
<trkpt lat="50.405393" lon="4.331532"><time>2026-05-02T18:13:15Z</time></trkpt>
<trkpt lat="50.402979" lon="4.336429"><time>2026-05-02T18:23:15Z</time></trkpt>
</trkseg>
</trk>
<trk>
<name>hfefe67</name>
<cmt>q</cmt>
<desc>Fontaine-l'Evêque Sentier n°67 </desc>
<link href="https://chemins.be/fontaineleveque/sentier/67"/><trkseg>
<trkpt lat="50.408057" lon="4.327522"><time>2026-05-02T17:43:15Z</time></trkpt>
<trkpt lat="50.407116" lon="4.327497"><time>2026-05-02T17:53:15Z</time></trkpt>
<trkpt lat="50.405785" lon="4.327489"><time>2026-05-02T18:03:15Z</time></trkpt>
<trkpt lat="50.405391" lon="4.326989"><time>2026-05-02T18:13:15Z</time></trkpt>
</trkseg>
</trk>
<trk>
<name>hfefe68</name>
<cmt>r</cmt>
<desc>Fontaine-l'Evêque Sentier n°68 </desc>
<link href="https://chemins.be/fontaineleveque/sentier/68"/><trkseg>
<trkpt lat="50.406727" lon="4.332495"><time>2026-05-02T17:43:15Z</time></trkpt>
<trkpt lat="50.406008" lon="4.332038"><time>2026-05-02T17:53:15Z</time></trkpt>
<trkpt lat="50.405419" lon="4.331452"><time>2026-05-02T18:03:15Z</time></trkpt>
</trkseg></trk>
<trk>
<name>hfefe68</name>
<cmt>q</cmt>
<desc>Fontaine-l'Evêque Sentier n°68 </desc>
<link href="https://chemins.be/fontaineleveque/sentier/68"/><trkseg>
<trkpt lat="50.405419" lon="4.331452"><time>2026-05-02T18:03:15Z</time></trkpt>
<trkpt lat="50.404985" lon="4.331093"><time>2026-05-02T18:13:15Z</time></trkpt>
<trkpt lat="50.402729" lon="4.328890"><time>2026-05-02T18:23:15Z</time></trkpt>
</trkseg>
</trk>
<trk>
<name>hfefe69</name>
<cmt>q</cmt>
<desc>Fontaine-l'Evêque Sentier n°69 </desc>
<link href="https://chemins.be/fontaineleveque/sentier/69"/><trkseg>
<trkpt lat="50.405769" lon="4.338727"><time>2026-05-02T17:43:15Z</time></trkpt>
<trkpt lat="50.405121" lon="4.338371"><time>2026-05-02T17:53:15Z</time></trkpt>
</trkseg></trk>
<trk>
<name>hfefe69</name>
<cmt>s</cmt>
<desc>Fontaine-l'Evêque Sentier n°69 </desc>
<link href="https://chemins.be/fontaineleveque/sentier/69"/><trkseg>
<trkpt lat="50.405121" lon="4.338371"><time>2026-05-02T17:53:15Z</time></trkpt>
<trkpt lat="50.404861" lon="4.338852"><time>2026-05-02T18:03:15Z</time></trkpt>
</trkseg>
</trk>
<trk>
<name>hfefe70</name>
<cmt>q</cmt>
<desc>Fontaine-l'Evêque Sentier n°70 </desc>
<link href="https://chemins.be/fontaineleveque/sentier/70"/><trkseg>
<trkpt lat="50.406467" lon="4.324622"><time>2026-05-02T17:43:15Z</time></trkpt>
<trkpt lat="50.405502" lon="4.324568"><time>2026-05-02T17:53:15Z</time></trkpt>
<trkpt lat="50.404258" lon="4.323120"><time>2026-05-02T18:03:15Z</time></trkpt>
<trkpt lat="50.403335" lon="4.322788"><time>2026-05-02T18:13:15Z</time></trkpt>
<trkpt lat="50.402596" lon="4.321500"><time>2026-05-02T18:23:15Z</time></trkpt>
</trkseg>
</trk>
<trk>
<name>hfefe71</name>
<cmt>q</cmt>
<desc>Fontaine-l'Evêque Sentier n°71 </desc>
<link href="https://chemins.be/fontaineleveque/sentier/71"/><trkseg>
<trkpt lat="50.405406" lon="4.322661"><time>2026-05-02T17:43:15Z</time></trkpt>
<trkpt lat="50.405479" lon="4.322820"><time>2026-05-02T17:53:15Z</time></trkpt>
<trkpt lat="50.405920" lon="4.323511"><time>2026-05-02T18:03:15Z</time></trkpt>
<trkpt lat="50.406049" lon="4.323901"><time>2026-05-02T18:13:15Z</time></trkpt>
</trkseg>
</trk>
<trk>
<name>hfefe73</name>
<cmt>q</cmt>
<desc>Fontaine-l'Evêque Sentier n°73 </desc>
<link href="https://chemins.be/fontaineleveque/sentier/73"/><trkseg>
<trkpt lat="50.403868" lon="4.327970"><time>2026-05-02T17:43:15Z</time></trkpt>
<trkpt lat="50.401995" lon="4.328120"><time>2026-05-02T17:53:15Z</time></trkpt>
<trkpt lat="50.400524" lon="4.326918"><time>2026-05-02T18:03:15Z</time></trkpt>
</trkseg>
</trk>
<trk>
<name>hfefe74</name>
<cmt>q</cmt>
<desc>Fontaine-l'Evêque Sentier n°74 </desc>
<link href="https://chemins.be/fontaineleveque/sentier/74"/><trkseg>
<trkpt lat="50.402354" lon="4.305711"><time>2026-05-02T17:43:15Z</time></trkpt>
<trkpt lat="50.402741" lon="4.305260"><time>2026-05-02T17:53:15Z</time></trkpt>
<trkpt lat="50.403653" lon="4.304738"><time>2026-05-02T18:03:15Z</time></trkpt>
<trkpt lat="50.404838" lon="4.303815"><time>2026-05-02T18:13:15Z</time></trkpt>
</trkseg>
</trk>
<trk>
<name>hfefe75</name>
<cmt>v</cmt>
<desc>Fontaine-l'Evêque Sentier n°75 </desc>
<link href="https://chemins.be/fontaineleveque/sentier/75"/><trkseg>
<trkpt lat="50.403812" lon="4.301506"><time>2026-05-02T17:43:15Z</time></trkpt>
<trkpt lat="50.403289" lon="4.297962"><time>2026-05-02T17:53:15Z</time></trkpt>
<trkpt lat="50.403279" lon="4.297456"><time>2026-05-02T18:03:15Z</time></trkpt>
</trkseg></trk>
<trk>
<name>hfefe75</name>
<cmt>q</cmt>
<desc>Fontaine-l'Evêque Sentier n°75 </desc>
<link href="https://chemins.be/fontaineleveque/sentier/75"/><trkseg>
<trkpt lat="50.403279" lon="4.297456"><time>2026-05-02T18:03:15Z</time></trkpt>
<trkpt lat="50.402621" lon="4.294573"><time>2026-05-02T18:13:15Z</time></trkpt>
<trkpt lat="50.401973" lon="4.293294"><time>2026-05-02T18:23:15Z</time></trkpt>
<trkpt lat="50.401739" lon="4.292675"><time>2026-05-02T18:33:15Z</time></trkpt>
</trkseg></trk>
<trk>
<name>hfefe75</name>
<cmt>v</cmt>
<desc>Fontaine-l'Evêque Sentier n°75 </desc>
<link href="https://chemins.be/fontaineleveque/sentier/75"/><trkseg>
<trkpt lat="50.401739" lon="4.292675"><time>2026-05-02T18:33:15Z</time></trkpt>
<trkpt lat="50.401127" lon="4.291101"><time>2026-05-02T18:43:15Z</time></trkpt>
</trkseg>
</trk>
<trk>
<name>hfefe76</name>
<cmt>q</cmt>
<desc>Fontaine-l'Evêque Sentier n°76 </desc>
<link href="https://chemins.be/fontaineleveque/sentier/76"/><trkseg>
<trkpt lat="50.402399" lon="4.303036"><time>2026-05-02T17:43:15Z</time></trkpt>
<trkpt lat="50.403102" lon="4.298637"><time>2026-05-02T17:53:15Z</time></trkpt>
<trkpt lat="50.403331" lon="4.298379"><time>2026-05-02T18:03:15Z</time></trkpt>
<trkpt lat="50.404031" lon="4.297457"><time>2026-05-02T18:13:15Z</time></trkpt>
<trkpt lat="50.404966" lon="4.291935"><time>2026-05-02T18:23:15Z</time></trkpt>
</trkseg>
</trk>
<trk>
<name>hfefe77</name>
<cmt>q</cmt>
<desc>Fontaine-l'Evêque Sentier n°77 </desc>
<link href="https://chemins.be/fontaineleveque/sentier/77"/><trkseg>
<trkpt lat="50.402243" lon="4.303649"><time>2026-05-02T17:43:15Z</time></trkpt>
<trkpt lat="50.401368" lon="4.301916"><time>2026-05-02T17:53:15Z</time></trkpt>
<trkpt lat="50.401034" lon="4.300740"><time>2026-05-02T18:03:15Z</time></trkpt>
<trkpt lat="50.401105" lon="4.300087"><time>2026-05-02T18:13:15Z</time></trkpt>
<trkpt lat="50.401056" lon="4.299216"><time>2026-05-02T18:23:15Z</time></trkpt>
<trkpt lat="50.400957" lon="4.297452"><time>2026-05-02T18:33:15Z</time></trkpt>
<trkpt lat="50.401587" lon="4.293780"><time>2026-05-02T18:43:15Z</time></trkpt>
<trkpt lat="50.401771" lon="4.292705"><time>2026-05-02T18:53:15Z</time></trkpt>
<trkpt lat="50.402090" lon="4.290843"><time>2026-05-02T19:03:15Z</time></trkpt>
</trkseg>
</trk>
<trk>
<name>hfefe78</name>
<cmt>q</cmt>
<desc>Fontaine-l'Evêque Sentier n°78 </desc>
<link href="https://chemins.be/fontaineleveque/sentier/78"/><trkseg>
<trkpt lat="50.401384" lon="4.301898"><time>2026-05-02T17:43:15Z</time></trkpt>
<trkpt lat="50.400963" lon="4.301289"><time>2026-05-02T17:53:15Z</time></trkpt>
<trkpt lat="50.400323" lon="4.301916"><time>2026-05-02T18:03:15Z</time></trkpt>
<trkpt lat="50.399863" lon="4.301315"><time>2026-05-02T18:13:15Z</time></trkpt>
<trkpt lat="50.399283" lon="4.300096"><time>2026-05-02T18:23:15Z</time></trkpt>
<trkpt lat="50.395103" lon="4.300572"><time>2026-05-02T18:33:15Z</time></trkpt>
<trkpt lat="50.393921" lon="4.300349"><time>2026-05-02T18:43:15Z</time></trkpt>
</trkseg>
</trk>
<trk>
<name>hfefe81</name>
<cmt>q</cmt>
<desc>Fontaine-l'Evêque Sentier n°81 </desc>
<link href="https://chemins.be/fontaineleveque/sentier/81"/><trkseg>
<trkpt lat="50.405169" lon="4.304999"><time>2026-05-02T17:43:15Z</time></trkpt>
<trkpt lat="50.405971" lon="4.304323"><time>2026-05-02T17:53:15Z</time></trkpt>
</trkseg>
</trk>
<trk>
<name>hfefe82</name>
<cmt>q</cmt>
<desc>Fontaine-l'Evêque Sentier n°82 </desc>
<link href="https://chemins.be/fontaineleveque/sentier/82"/><trkseg>
<trkpt lat="50.412487" lon="4.328310"><time>2026-05-02T17:43:15Z</time></trkpt>
<trkpt lat="50.413454" lon="4.329823"><time>2026-05-02T17:53:15Z</time></trkpt>
</trkseg>
</trk>
<trk>
<name>hfefe83</name>
<cmt>q</cmt>
<desc>Fontaine-l'Evêque Sentier n°83 </desc>
<link href="https://chemins.be/fontaineleveque/sentier/83"/><trkseg>
<trkpt lat="50.405162" lon="4.304981"><time>2026-05-02T17:43:15Z</time></trkpt>
<trkpt lat="50.404943" lon="4.304867"><time>2026-05-02T17:53:15Z</time></trkpt>
<trkpt lat="50.404629" lon="4.303973"><time>2026-05-02T18:03:15Z</time></trkpt>
<trkpt lat="50.404496" lon="4.304094"><time>2026-05-02T18:13:15Z</time></trkpt>
<trkpt lat="50.403981" lon="4.303064"><time>2026-05-02T18:23:15Z</time></trkpt>
</trkseg>
</trk>
<trk>
<name>hfefe84</name>
<cmt>q</cmt>
<desc>Fontaine-l'Evêque Sentier n°84 </desc>
<link href="https://chemins.be/fontaineleveque/sentier/84"/><trkseg>
<trkpt lat="50.418594" lon="4.324741"><time>2026-05-02T17:43:15Z</time></trkpt>
<trkpt lat="50.417892" lon="4.324788"><time>2026-05-02T17:53:15Z</time></trkpt>
<trkpt lat="50.417053" lon="4.324208"><time>2026-05-02T18:03:15Z</time></trkpt>
</trkseg>
</trk>
<trk>
<name>hfefe85</name>
<cmt>v</cmt>
<desc>Fontaine-l'Evêque Sentier n°85 </desc>
<link href="https://chemins.be/fontaineleveque/sentier/85"/><trkseg>
<trkpt lat="50.418596" lon="4.323425"><time>2026-05-02T17:43:15Z</time></trkpt>
<trkpt lat="50.417899" lon="4.323264"><time>2026-05-02T17:53:15Z</time></trkpt>
</trkseg>
</trk>
<trk>
<name>hfefe86</name>
<cmt>q</cmt>
<desc>Fontaine-l'Evêque Sentier n°86 </desc>
<link href="https://chemins.be/fontaineleveque/sentier/86"/><trkseg>
<trkpt lat="50.416647" lon="4.317511"><time>2026-05-02T17:43:15Z</time></trkpt>
<trkpt lat="50.416496" lon="4.317732"><time>2026-05-02T17:53:15Z</time></trkpt>
<trkpt lat="50.415763" lon="4.317768"><time>2026-05-02T18:03:15Z</time></trkpt>
<trkpt lat="50.415699" lon="4.317589"><time>2026-05-02T18:13:15Z</time></trkpt>
</trkseg>
</trk>
<trk>
<name>hfefe88</name>
<cmt>q</cmt>
<desc>Fontaine-l'Evêque Sentier n°88 </desc>
<link href="https://chemins.be/fontaineleveque/sentier/88"/><trkseg>
<trkpt lat="50.402276" lon="4.343526"><time>2026-05-02T17:43:15Z</time></trkpt>
<trkpt lat="50.401811" lon="4.346239"><time>2026-05-02T17:53:15Z</time></trkpt>
<trkpt lat="50.401422" lon="4.348444"><time>2026-05-02T18:03:15Z</time></trkpt>
<trkpt lat="50.401165" lon="4.349080"><time>2026-05-02T18:13:15Z</time></trkpt>
</trkseg>
</trk>
<trk>
<name>hfefe95</name>
<cmt>q</cmt>
<desc>Fontaine-l'Evêque Sentier n°95 </desc>
<link href="https://chemins.be/fontaineleveque/sentier/95"/><trkseg>
<trkpt lat="50.421548" lon="4.300407"><time>2026-05-02T17:43:15Z</time></trkpt>
<trkpt lat="50.418869" lon="4.297332"><time>2026-05-02T17:53:15Z</time></trkpt>
<trkpt lat="50.418066" lon="4.297417"><time>2026-05-02T18:03:15Z</time></trkpt>
</trkseg></trk>
<trk>
<name>hfefe95</name>
<cmt>v</cmt>
<desc>Fontaine-l'Evêque Sentier n°95 </desc>
<link href="https://chemins.be/fontaineleveque/sentier/95"/><trkseg>
<trkpt lat="50.418066" lon="4.297417"><time>2026-05-02T18:03:15Z</time></trkpt>
<trkpt lat="50.417190" lon="4.296392"><time>2026-05-02T18:13:15Z</time></trkpt>
<trkpt lat="50.416374" lon="4.295983"><time>2026-05-02T18:23:15Z</time></trkpt>
<trkpt lat="50.416429" lon="4.295661"><time>2026-05-02T18:33:15Z</time></trkpt>
</trkseg></trk>
<trk>
<name>hfefe95</name>
<cmt>q</cmt>
<desc>Fontaine-l'Evêque Sentier n°95 </desc>
<link href="https://chemins.be/fontaineleveque/sentier/95"/><trkseg>
<trkpt lat="50.416429" lon="4.295661"><time>2026-05-02T18:33:15Z</time></trkpt>
<trkpt lat="50.410754" lon="4.292736"><time>2026-05-02T18:43:15Z</time></trkpt>
</trkseg>
</trk>
<trk>
<name>hfefe96</name>
<cmt>v</cmt>
<desc>Fontaine-l'Evêque Chemin n°96 Rue de Mariemont</desc>
<link href="https://chemins.be/fontaineleveque/chemin/96"/><trkseg>
<trkpt lat="50.424333" lon="4.294047"><time>2026-05-02T17:43:15Z</time></trkpt>
<trkpt lat="50.424461" lon="4.298128"><time>2026-05-02T17:53:15Z</time></trkpt>
</trkseg>
</trk>
<trk>
<name>hfefe97</name>
<cmt>q</cmt>
<desc>Fontaine-l'Evêque Sentier n°97 </desc>
<link href="https://chemins.be/fontaineleveque/sentier/97"/><trkseg>
<trkpt lat="50.416411" lon="4.330005"><time>2026-05-02T17:43:15Z</time></trkpt>
<trkpt lat="50.417093" lon="4.328822"><time>2026-05-02T17:53:15Z</time></trkpt>
</trkseg>
</trk>
<trk>
<name>hfefe98</name>
<cmt>v</cmt>
<desc>Fontaine-l'Evêque Sentier n°98 Rue de la Charbonnière</desc>
<link href="https://chemins.be/fontaineleveque/sentier/98"/><trkseg>
<trkpt lat="50.413567" lon="4.354507"><time>2026-05-02T17:43:15Z</time></trkpt>
<trkpt lat="50.413630" lon="4.354423"><time>2026-05-02T17:53:15Z</time></trkpt>
<trkpt lat="50.414160" lon="4.354296"><time>2026-05-02T18:03:15Z</time></trkpt>
<trkpt lat="50.415383" lon="4.354070"><time>2026-05-02T18:13:15Z</time></trkpt>
<trkpt lat="50.417550" lon="4.353197"><time>2026-05-02T18:23:15Z</time></trkpt>
<trkpt lat="50.419950" lon="4.352395"><time>2026-05-02T18:33:15Z</time></trkpt>
<trkpt lat="50.421104" lon="4.351948"><time>2026-05-02T18:43:15Z</time></trkpt>
<trkpt lat="50.424031" lon="4.349577"><time>2026-05-02T18:53:15Z</time></trkpt>
<trkpt lat="50.426732" lon="4.348376"><time>2026-05-02T19:03:15Z</time></trkpt>
<trkpt lat="50.428755" lon="4.347277"><time>2026-05-02T19:13:15Z</time></trkpt>
<trkpt lat="50.429707" lon="4.347432"><time>2026-05-02T19:23:15Z</time></trkpt>
</trkseg>
</trk>
<trk>
<name>hfefe99</name>
<cmt>v</cmt>
<desc>Fontaine-l'Evêque Sentier n°99 </desc>
<link href="https://chemins.be/fontaineleveque/sentier/99"/><trkseg>
<trkpt lat="50.430133" lon="4.344358"><time>2026-05-02T17:43:15Z</time></trkpt>
<trkpt lat="50.429764" lon="4.345939"><time>2026-05-02T17:53:15Z</time></trkpt>
<trkpt lat="50.429846" lon="4.346389"><time>2026-05-02T18:03:15Z</time></trkpt>
<trkpt lat="50.429539" lon="4.347399"><time>2026-05-02T18:13:15Z</time></trkpt>
<trkpt lat="50.429152" lon="4.347710"><time>2026-05-02T18:23:15Z</time></trkpt>
<trkpt lat="50.429104" lon="4.348182"><time>2026-05-02T18:33:15Z</time></trkpt>
</trkseg>
</trk>
<trk>
<name>hfefei1</name>
<cmt>v</cmt>
<desc>Fontaine-l'Evêque Sentier n°i1 </desc>
<link href="https://chemins.be/fontaineleveque/sentier/i1"/><trkseg>
<trkpt lat="50.406749" lon="4.312250"><time>2026-05-02T17:43:15Z</time></trkpt>
<trkpt lat="50.406218" lon="4.312264"><time>2026-05-02T17:53:15Z</time></trkpt>
<trkpt lat="50.406146" lon="4.312222"><time>2026-05-02T18:03:15Z</time></trkpt>
<trkpt lat="50.406110" lon="4.312208"><time>2026-05-02T18:13:15Z</time></trkpt>
<trkpt lat="50.406038" lon="4.312251"><time>2026-05-02T18:23:15Z</time></trkpt>
<trkpt lat="50.406048" lon="4.313235"><time>2026-05-02T18:33:15Z</time></trkpt>
<trkpt lat="50.406057" lon="4.313277"><time>2026-05-02T18:43:15Z</time></trkpt>
<trkpt lat="50.406066" lon="4.313320"><time>2026-05-02T18:53:15Z</time></trkpt>
<trkpt lat="50.406075" lon="4.313756"><time>2026-05-02T19:03:15Z</time></trkpt>
<trkpt lat="50.406120" lon="4.313756"><time>2026-05-02T19:13:15Z</time></trkpt>
<trkpt lat="50.406129" lon="4.313953"><time>2026-05-02T19:23:15Z</time></trkpt>
</trkseg>
</trk>
<trk>
<name>hfefei10</name>
<cmt>v</cmt>
<desc>Fontaine-l'Evêque Chemin n°i10 </desc>
<link href="https://chemins.be/fontaineleveque/chemin/i10"/><trkseg>
<trkpt lat="50.410338" lon="4.352657"><time>2026-05-02T17:43:15Z</time></trkpt>
<trkpt lat="50.410384" lon="4.352512"><time>2026-05-02T17:53:15Z</time></trkpt>
<trkpt lat="50.410504" lon="4.352376"><time>2026-05-02T18:03:15Z</time></trkpt>
<trkpt lat="50.411894" lon="4.351689"><time>2026-05-02T18:13:15Z</time></trkpt>
<trkpt lat="50.412003" lon="4.351746"><time>2026-05-02T18:23:15Z</time></trkpt>
</trkseg>
</trk>
<trk>
<name>hfefei11</name>
<cmt>v</cmt>
<desc>Fontaine-l'Evêque Chemin n°i11 </desc>
<link href="https://chemins.be/fontaineleveque/chemin/i11"/><trkseg>
<trkpt lat="50.412200" lon="4.346896"><time>2026-05-02T17:43:15Z</time></trkpt>
<trkpt lat="50.411867" lon="4.346867"><time>2026-05-02T17:53:15Z</time></trkpt>
<trkpt lat="50.411596" lon="4.347762"><time>2026-05-02T18:03:15Z</time></trkpt>
<trkpt lat="50.410224" lon="4.350229"><time>2026-05-02T18:13:15Z</time></trkpt>
<trkpt lat="50.409609" lon="4.351220"><time>2026-05-02T18:23:15Z</time></trkpt>
<trkpt lat="50.409625" lon="4.351592"><time>2026-05-02T18:33:15Z</time></trkpt>
<trkpt lat="50.409734" lon="4.352078"><time>2026-05-02T18:43:15Z</time></trkpt>
</trkseg>
</trk>
<trk>
<name>hfefei12</name>
<cmt>v</cmt>
<desc>Fontaine-l'Evêque Chemin n°i12 </desc>
<link href="https://chemins.be/fontaineleveque/chemin/i12"/><trkseg>
<trkpt lat="50.405895" lon="4.341250"><time>2026-05-02T17:43:15Z</time></trkpt>
<trkpt lat="50.405567" lon="4.344254"><time>2026-05-02T17:53:15Z</time></trkpt>
<trkpt lat="50.405152" lon="4.346643"><time>2026-05-02T18:03:15Z</time></trkpt>
<trkpt lat="50.405270" lon="4.349025"><time>2026-05-02T18:13:15Z</time></trkpt>
<trkpt lat="50.405152" lon="4.349096"><time>2026-05-02T18:23:15Z</time></trkpt>
<trkpt lat="50.404623" lon="4.349225"><time>2026-05-02T18:33:15Z</time></trkpt>
<trkpt lat="50.404245" lon="4.349454"><time>2026-05-02T18:43:15Z</time></trkpt>
<trkpt lat="50.403862" lon="4.351471"><time>2026-05-02T18:53:15Z</time></trkpt>
</trkseg>
</trk>
<trk>
<name>hfefei13</name>
<cmt>q</cmt>
<desc>Fontaine-l'Evêque Chemin n°i13 </desc>
<link href="https://chemins.be/fontaineleveque/chemin/i13"/><trkseg>
<trkpt lat="50.420491" lon="4.301995"><time>2026-05-02T17:43:15Z</time></trkpt>
<trkpt lat="50.418057" lon="4.297403"><time>2026-05-02T17:53:15Z</time></trkpt>
</trkseg>
</trk>
<trk>
<name>hfefei14</name>
<cmt>v</cmt>
<desc>Fontaine-l'Evêque Chemin n°i14 </desc>
<link href="https://chemins.be/fontaineleveque/chemin/i14"/><trkseg>
<trkpt lat="50.418287" lon="4.316772"><time>2026-05-02T17:43:15Z</time></trkpt>
<trkpt lat="50.418200" lon="4.316211"><time>2026-05-02T17:53:15Z</time></trkpt>
</trkseg>
</trk>
<trk>
<name>hfefei15</name>
<cmt>v</cmt>
<desc>Fontaine-l'Evêque Chemin n°i15 </desc>
<link href="https://chemins.be/fontaineleveque/chemin/i15"/><trkseg>
<trkpt lat="50.403126" lon="4.356425"><time>2026-05-02T17:43:15Z</time></trkpt>
<trkpt lat="50.402600" lon="4.356171"><time>2026-05-02T17:53:15Z</time></trkpt>
<trkpt lat="50.402527" lon="4.356021"><time>2026-05-02T18:03:15Z</time></trkpt>
</trkseg>
</trk>
<trk>
<name>hfefei16</name>
<cmt>v</cmt>
<desc>Fontaine-l'Evêque Sentier n°i16 </desc>
<link href="https://chemins.be/fontaineleveque/sentier/i16"/><trkseg>
<trkpt lat="50.405028" lon="4.325591"><time>2026-05-02T17:43:15Z</time></trkpt>
<trkpt lat="50.405606" lon="4.323968"><time>2026-05-02T17:53:15Z</time></trkpt>
<trkpt lat="50.405734" lon="4.323765"><time>2026-05-02T18:03:15Z</time></trkpt>
<trkpt lat="50.405528" lon="4.323461"><time>2026-05-02T18:13:15Z</time></trkpt>
</trkseg>
</trk>
<trk>
<name>hfefei2</name>
<cmt>q</cmt>
<desc>Fontaine-l'Evêque Chemin n°i2 </desc>
<link href="https://chemins.be/fontaineleveque/chemin/i2"/><trkseg>
<trkpt lat="50.411127" lon="4.311752"><time>2026-05-02T17:43:15Z</time></trkpt>
<trkpt lat="50.410704" lon="4.312006"><time>2026-05-02T17:53:15Z</time></trkpt>
</trkseg>
</trk>
<trk>
<name>hfefei3</name>
<cmt>q</cmt>
<desc>Fontaine-l'Evêque Chemin n°i3 </desc>
<link href="https://chemins.be/fontaineleveque/chemin/i3"/><trkseg>
<trkpt lat="50.409087" lon="4.313344"><time>2026-05-02T17:43:15Z</time></trkpt>
<trkpt lat="50.409149" lon="4.312233"><time>2026-05-02T17:53:15Z</time></trkpt>
<trkpt lat="50.409544" lon="4.310854"><time>2026-05-02T18:03:15Z</time></trkpt>
<trkpt lat="50.410254" lon="4.310149"><time>2026-05-02T18:13:15Z</time></trkpt>
<trkpt lat="50.411000" lon="4.310092"><time>2026-05-02T18:23:15Z</time></trkpt>
<trkpt lat="50.412412" lon="4.310667"><time>2026-05-02T18:33:15Z</time></trkpt>
<trkpt lat="50.413905" lon="4.311608"><time>2026-05-02T18:43:15Z</time></trkpt>
<trkpt lat="50.415308" lon="4.312577"><time>2026-05-02T18:53:15Z</time></trkpt>
<trkpt lat="50.415901" lon="4.313660"><time>2026-05-02T19:03:15Z</time></trkpt>
<trkpt lat="50.416577" lon="4.317416"><time>2026-05-02T19:13:15Z</time></trkpt>
<trkpt lat="50.416884" lon="4.318879"><time>2026-05-02T19:23:15Z</time></trkpt>
<trkpt lat="50.417019" lon="4.320075"><time>2026-05-02T19:33:15Z</time></trkpt>
<trkpt lat="50.416840" lon="4.321342"><time>2026-05-02T19:43:15Z</time></trkpt>
<trkpt lat="50.416265" lon="4.322313"><time>2026-05-02T19:53:15Z</time></trkpt>
</trkseg>
</trk>
<trk>
<name>hfefei4</name>
<cmt>v</cmt>
<desc>Fontaine-l'Evêque Sentier n°i4 </desc>
<link href="https://chemins.be/fontaineleveque/sentier/i4"/><trkseg>
<trkpt lat="50.411301" lon="4.319293"><time>2026-05-02T17:43:15Z</time></trkpt>
<trkpt lat="50.411382" lon="4.319279"><time>2026-05-02T17:53:15Z</time></trkpt>
<trkpt lat="50.411948" lon="4.319264"><time>2026-05-02T18:03:15Z</time></trkpt>
<trkpt lat="50.412371" lon="4.319292"><time>2026-05-02T18:13:15Z</time></trkpt>
</trkseg>
</trk>
<trk>
<name>hfefei5</name>
<cmt>v</cmt>
<desc>Fontaine-l'Evêque Sentier n°i5 </desc>
<link href="https://chemins.be/fontaineleveque/sentier/i5"/><trkseg>
<trkpt lat="50.426539" lon="4.344783"><time>2026-05-02T17:43:15Z</time></trkpt>
<trkpt lat="50.428069" lon="4.344338"><time>2026-05-02T17:53:15Z</time></trkpt>
<trkpt lat="50.428440" lon="4.345166"><time>2026-05-02T18:03:15Z</time></trkpt>
<trkpt lat="50.429673" lon="4.344553"><time>2026-05-02T18:13:15Z</time></trkpt>
<trkpt lat="50.430037" lon="4.344395"><time>2026-05-02T18:23:15Z</time></trkpt>
<trkpt lat="50.430836" lon="4.343828"><time>2026-05-02T18:33:15Z</time></trkpt>
</trkseg></trk>
<trk>
<name>hfefei5</name>
<cmt>q</cmt>
<desc>Fontaine-l'Evêque Sentier n°i5 </desc>
<link href="https://chemins.be/fontaineleveque/sentier/i5"/><trkseg>
<trkpt lat="50.430836" lon="4.343828"><time>2026-05-02T18:33:15Z</time></trkpt>
<trkpt lat="50.434452" lon="4.341105"><time>2026-05-02T18:43:15Z</time></trkpt>
</trkseg>
</trk>
<trk>
<name>hfefei6</name>
<cmt>v</cmt>
<desc>Fontaine-l'Evêque Sentier n°i6 </desc>
<link href="https://chemins.be/fontaineleveque/sentier/i6"/><trkseg>
<trkpt lat="50.426782" lon="4.349708"><time>2026-05-02T17:43:15Z</time></trkpt>
<trkpt lat="50.426994" lon="4.348671"><time>2026-05-02T17:53:15Z</time></trkpt>
<trkpt lat="50.426743" lon="4.348327"><time>2026-05-02T18:03:15Z</time></trkpt>
<trkpt lat="50.426265" lon="4.346425"><time>2026-05-02T18:13:15Z</time></trkpt>
<trkpt lat="50.426406" lon="4.345853"><time>2026-05-02T18:23:15Z</time></trkpt>
<trkpt lat="50.427636" lon="4.345259"><time>2026-05-02T18:33:15Z</time></trkpt>
<trkpt lat="50.428383" lon="4.345109"><time>2026-05-02T18:43:15Z</time></trkpt>
</trkseg>
</trk>
<trk>
<name>hfefei7</name>
<cmt>v</cmt>
<desc>Fontaine-l'Evêque Chemin n°i7 Rue de la Sarthe / Rue Célestin Hecq</desc>
<link href="https://chemins.be/fontaineleveque/chemin/i7"/><trkseg>
<trkpt lat="50.411847" lon="4.342384"><time>2026-05-02T17:43:15Z</time></trkpt>
<trkpt lat="50.412021" lon="4.343185"><time>2026-05-02T17:53:15Z</time></trkpt>
<trkpt lat="50.412166" lon="4.344222"><time>2026-05-02T18:03:15Z</time></trkpt>
<trkpt lat="50.412187" lon="4.345597"><time>2026-05-02T18:13:15Z</time></trkpt>
<trkpt lat="50.412221" lon="4.346811"><time>2026-05-02T18:23:15Z</time></trkpt>
<trkpt lat="50.412017" lon="4.351774"><time>2026-05-02T18:33:15Z</time></trkpt>
<trkpt lat="50.412054" lon="4.352447"><time>2026-05-02T18:43:15Z</time></trkpt>
<trkpt lat="50.412102" lon="4.352521"><time>2026-05-02T18:53:15Z</time></trkpt>
<trkpt lat="50.412448" lon="4.352493"><time>2026-05-02T19:03:15Z</time></trkpt>
<trkpt lat="50.412508" lon="4.352520"><time>2026-05-02T19:13:15Z</time></trkpt>
</trkseg>
</trk>
<trk>
<name>hfefei8</name>
<cmt>v</cmt>
<desc>Fontaine-l'Evêque Chemin n°i8 </desc>
<link href="https://chemins.be/fontaineleveque/chemin/i8"/><trkseg>
<trkpt lat="50.408320" lon="4.353941"><time>2026-05-02T17:43:15Z</time></trkpt>
<trkpt lat="50.408446" lon="4.353891"><time>2026-05-02T17:53:15Z</time></trkpt>
<trkpt lat="50.409148" lon="4.352114"><time>2026-05-02T18:03:15Z</time></trkpt>
<trkpt lat="50.409332" lon="4.351788"><time>2026-05-02T18:13:15Z</time></trkpt>
<trkpt lat="50.409314" lon="4.351685"><time>2026-05-02T18:23:15Z</time></trkpt>
</trkseg>
</trk>
<trk>
<name>hfefei9</name>
<cmt>v</cmt>
<desc>Fontaine-l'Evêque Chemin n°i9 </desc>
<link href="https://chemins.be/fontaineleveque/chemin/i9"/><trkseg>
<trkpt lat="50.408843" lon="4.351213"><time>2026-05-02T17:43:15Z</time></trkpt>
<trkpt lat="50.408439" lon="4.351246"><time>2026-05-02T17:53:15Z</time></trkpt>
<trkpt lat="50.408193" lon="4.352011"><time>2026-05-02T18:03:15Z</time></trkpt>
<trkpt lat="50.407327" lon="4.353649"><time>2026-05-02T18:13:15Z</time></trkpt>
<trkpt lat="50.407368" lon="4.354092"><time>2026-05-02T18:23:15Z</time></trkpt>
<trkpt lat="50.407805" lon="4.354605"><time>2026-05-02T18:33:15Z</time></trkpt>
<trkpt lat="50.408033" lon="4.354872"><time>2026-05-02T18:43:15Z</time></trkpt>
</trkseg>
</trk>
<trk>
<name>hfefeL112</name>
<cmt>v</cmt>
<desc>Fontaine-l'Evêque Chemin n°L112 Rue de la Casse</desc>
<link href="https://chemins.be/fontaineleveque/chemin/L112"/><trkseg>
<trkpt lat="50.407664" lon="4.356144"><time>2026-05-02T17:43:15Z</time></trkpt>
<trkpt lat="50.408265" lon="4.354100"><time>2026-05-02T17:53:15Z</time></trkpt>
</trkseg></trk>
<trk>
<name>hfefeL112</name>
<cmt>d</cmt>
<desc>Fontaine-l'Evêque Chemin n°L112 Rue de la Casse</desc>
<link href="https://chemins.be/fontaineleveque/chemin/L112"/><trkseg>
<trkpt lat="50.408265" lon="4.354100"><time>2026-05-02T17:53:15Z</time></trkpt>
<trkpt lat="50.409150" lon="4.351434"><time>2026-05-02T18:03:15Z</time></trkpt>
<trkpt lat="50.409722" lon="4.349814"><time>2026-05-02T18:13:15Z</time></trkpt>
<trkpt lat="50.410530" lon="4.346382"><time>2026-05-02T18:23:15Z</time></trkpt>
</trkseg></trk>
<trk>
<name>hfefeL112</name>
<cmt>s</cmt>
<desc>Fontaine-l'Evêque Chemin n°L112 Rue de la Casse</desc>
<link href="https://chemins.be/fontaineleveque/chemin/L112"/><trkseg>
<trkpt lat="50.410530" lon="4.346382"><time>2026-05-02T18:23:15Z</time></trkpt>
<trkpt lat="50.410598" lon="4.345531"><time>2026-05-02T18:33:15Z</time></trkpt>
</trkseg></trk>
<trk>
<name>hfefeL112</name>
<cmt>d</cmt>
<desc>Fontaine-l'Evêque Chemin n°L112 Rue de la Casse</desc>
<link href="https://chemins.be/fontaineleveque/chemin/L112"/><trkseg>
<trkpt lat="50.410598" lon="4.345531"><time>2026-05-02T18:33:15Z</time></trkpt>
<trkpt lat="50.410836" lon="4.341701"><time>2026-05-02T18:43:15Z</time></trkpt>
<trkpt lat="50.410944" lon="4.338449"><time>2026-05-02T18:53:15Z</time></trkpt>
<trkpt lat="50.411096" lon="4.336902"><time>2026-05-02T19:03:15Z</time></trkpt>
<trkpt lat="50.411345" lon="4.335298"><time>2026-05-02T19:13:15Z</time></trkpt>
<trkpt lat="50.412600" lon="4.331199"><time>2026-05-02T19:23:15Z</time></trkpt>
<trkpt lat="50.414123" lon="4.326901"><time>2026-05-02T19:33:15Z</time></trkpt>
<trkpt lat="50.414636" lon="4.325170"><time>2026-05-02T19:43:15Z</time></trkpt>
<trkpt lat="50.415090" lon="4.324014"><time>2026-05-02T19:53:15Z</time></trkpt>
</trkseg>
</trk>
<trk>
<name>hfefeL281</name>
<cmt>r</cmt>
<desc>Fontaine-l'Evêque Chemin n°L281 Rue Tout Vent</desc>
<link href="https://chemins.be/fontaineleveque/chemin/L281"/><trkseg>
<trkpt lat="50.424371" lon="4.298311"><time>2026-05-02T17:43:15Z</time></trkpt>
<trkpt lat="50.417996" lon="4.296435"><time>2026-05-02T17:53:15Z</time></trkpt>
</trkseg></trk>
<trk>
<name>hfefeL281</name>
<cmt>v</cmt>
<desc>Fontaine-l'Evêque Chemin n°L281 Rue Tout Vent</desc>
<link href="https://chemins.be/fontaineleveque/chemin/L281"/><trkseg>
<trkpt lat="50.417996" lon="4.296435"><time>2026-05-02T17:53:15Z</time></trkpt>
<trkpt lat="50.416359" lon="4.295945"><time>2026-05-02T18:03:15Z</time></trkpt>
<trkpt lat="50.414687" lon="4.295483"><time>2026-05-02T18:13:15Z</time></trkpt>
<trkpt lat="50.411063" lon="4.294363"><time>2026-05-02T18:23:15Z</time></trkpt>
<trkpt lat="50.408553" lon="4.292341"><time>2026-05-02T18:33:15Z</time></trkpt>
</trkseg>
</trk>
<trk>
<name>hfefeLi14</name>
<cmt>v</cmt>
<desc>Fontaine-l'Evêque Chemin n°Li14 </desc>
<link href="https://chemins.be/fontaineleveque/chemin/Li14"/><trkseg>
<trkpt lat="50.411765" lon="4.355401"><time>2026-05-02T17:43:15Z</time></trkpt>
<trkpt lat="50.411938" lon="4.355044"><time>2026-05-02T17:53:15Z</time></trkpt>
<trkpt lat="50.411929" lon="4.353470"><time>2026-05-02T18:03:15Z</time></trkpt>
<trkpt lat="50.412113" lon="4.352518"><time>2026-05-02T18:13:15Z</time></trkpt>
</trkseg></trk>
<trk>
<name>hfefeLi14</name>
<cmt>q</cmt>
<desc>Fontaine-l'Evêque Chemin n°Li14 </desc>
<link href="https://chemins.be/fontaineleveque/chemin/Li14"/><trkseg>
<trkpt lat="50.412113" lon="4.352518"><time>2026-05-02T18:13:15Z</time></trkpt>
<trkpt lat="50.412199" lon="4.352017"><time>2026-05-02T18:23:15Z</time></trkpt>
<trkpt lat="50.412532" lon="4.351341"><time>2026-05-02T18:33:15Z</time></trkpt>
<trkpt lat="50.413408" lon="4.350790"><time>2026-05-02T18:43:15Z</time></trkpt>
<trkpt lat="50.415747" lon="4.350536"><time>2026-05-02T18:53:15Z</time></trkpt>
<trkpt lat="50.426028" lon="4.351337"><time>2026-05-02T19:03:15Z</time></trkpt>
</trkseg>
</trk>
<trk>
<name>hfefeLi15</name>
<cmt>v</cmt>
<desc>Fontaine-l'Evêque Chemin n°Li15 RAVeL</desc>
<link href="https://chemins.be/fontaineleveque/chemin/Li15"/><trkseg>
<trkpt lat="50.407951" lon="4.356148"><time>2026-05-02T17:43:15Z</time></trkpt>
<trkpt lat="50.408364" lon="4.355079"><time>2026-05-02T17:53:15Z</time></trkpt>
<trkpt lat="50.409373" lon="4.353598"><time>2026-05-02T18:03:15Z</time></trkpt>
<trkpt lat="50.410340" lon="4.352661"><time>2026-05-02T18:13:15Z</time></trkpt>
<trkpt lat="50.411994" lon="4.351803"><time>2026-05-02T18:23:15Z</time></trkpt>
</trkseg></trk>
<trk>
<name>hfefeLi15</name>
<cmt>q</cmt>
<desc>Fontaine-l'Evêque Chemin n°Li15 RAVeL</desc>
<link href="https://chemins.be/fontaineleveque/chemin/Li15"/><trkseg>
<trkpt lat="50.411994" lon="4.351803"><time>2026-05-02T18:23:15Z</time></trkpt>
<trkpt lat="50.412496" lon="4.351391"><time>2026-05-02T18:33:15Z</time></trkpt>
</trkseg>
</trk>
</gpx>